Skrydstrup, Denmark

10:21 AM CET on February 22, 2017 (GMT +0100)
Vojens-Skrydstrup Air Base

Weather History for EKSP - September, 2013

Change the Weather History Date:

Monday, September 23, 2013

  Actual Average Record
Temperature  
Mean Temperature 60 °F -  
Max Temperature 64 °F 56 °F 71 °F (2005)
Min Temperature 55 °F 43 °F 35 °F (2014)
Degree Days  
Heating Degree Days 6    
Growing Degree Days 10 (Base 50)    
Moisture  
Dew Point 55 °F    
Average Humidity 86    
Maximum Humidity 94    
Minimum Humidity 72    
Precipitation  
Precipitation 0.00 in - - ()
Sea Level Pressure  
Sea Level Pressure 30.09 in    
Wind  
Wind Speed 13 mph ()    
Max Wind Speed 18 mph    
Max Gust Speed 28 mph    
Visibility 6.2 miles    
Events Rain    
Averages and records for this station are not official NWS values.
T = Trace of Precipitation, MM = Missing Value Source: Averaged Metar Reports

Daily Weather History Graph

Daily Weather History Graph

Search for Another Location

Airport or City:

Trip Planner

Search our weather history database for the weather conditions in past years. The results will help you decide how hot, cold, wet, or windy it might be!

Date:

Astronomy

Sep. 23, 2013 Rise Set
Actual Time 7:10 AM CEST 7:19 PM CEST
Civil Twilight 6:33 AM CEST 7:55 PM CEST
Nautical Twilight 5:50 AM CEST 8:38 PM CEST
Astronomical Twilight 5:04 AM CEST 9:23 PM CEST
Moon 8:51 PM CEST (9/23) 11:59 AM CEST (9/23)
Length of Visible Light 13h 21m
Length of Day
12h 08m
Waning Gibbous, 83% of the Moon is Illuminated
Sep 23
Waning Gibbous
Sep 27
Last Quarter
Oct 5
New
Oct 12
First Quarter
Oct 19
Full

Hourly Weather History & Observations

Time (CEST) Temp. Dew Point Humidity Pressure Visibility Wind Dir Wind Speed Gust Speed Precip Events Conditions
12:20 AM 59.0 °F 53.6 °F 82% 30.09 in 6.2 mi WNW 18.4 mph - N/A   Mostly Cloudy
12:50 AM 59.0 °F 53.6 °F 82% 30.09 in 6.2 mi WNW 13.8 mph - N/A   Mostly Cloudy
1:20 AM 57.2 °F 53.6 °F 88% 30.09 in 6.2 mi WNW 13.8 mph - N/A   Mostly Cloudy
1:50 AM 57.2 °F 53.6 °F 88% 30.09 in 6.2 mi WNW 15.0 mph - N/A   Mostly Cloudy
2:20 AM 57.2 °F 53.6 °F 88% 30.12 in 6.2 mi WNW 12.7 mph - N/A   Mostly Cloudy
2:50 AM 57.2 °F 53.6 °F 88% 30.12 in 6.2 mi WNW 11.5 mph - N/A   Scattered Clouds
3:20 AM 57.2 °F 53.6 °F 88% 30.12 in 6.2 mi WNW 11.5 mph - N/A   Scattered Clouds
3:50 AM 57.2 °F 53.6 °F 88% 30.12 in 6.2 mi WNW 9.2 mph - N/A   Mostly Cloudy
4:20 AM 57.2 °F 53.6 °F 88% 30.09 in 6.2 mi WNW 10.4 mph - N/A   Mostly Cloudy
4:50 AM 57.2 °F 53.6 °F 88% 30.12 in 6.2 mi WNW 11.5 mph - N/A   Mostly Cloudy
5:20 AM 57.2 °F 53.6 °F 88% 30.12 in 6.2 mi WNW 12.7 mph - N/A   Mostly Cloudy
5:50 AM 57.2 °F 55.4 °F 94% 30.09 in 6.2 mi West 11.5 mph - N/A   Mostly Cloudy
6:20 AM 57.2 °F 53.6 °F 88% 30.09 in 6.2 mi WNW 11.5 mph - N/A   Mostly Cloudy
6:50 AM 59.0 °F 55.4 °F 88% 30.09 in 6.2 mi WNW 12.7 mph - N/A   Mostly Cloudy
7:20 AM 59.0 °F 55.4 °F 88% 30.12 in 6.2 mi WNW 13.8 mph - N/A   Mostly Cloudy
7:50 AM 59.0 °F 55.4 °F 88% 30.09 in 6.2 mi WNW 12.7 mph - N/A   Scattered Clouds
8:10 AM 59.0 °F 55.4 °F 88% 30.12 in 6.2 mi WNW 13.8 mph - N/A   Mostly Cloudy
8:20 AM 59.0 °F 55.4 °F 88% 30.12 in 6.2 mi WNW 15.0 mph - N/A   Mostly Cloudy
8:50 AM 59.0 °F 55.4 °F 88% 30.12 in 6.2 mi WNW 16.1 mph - N/A   Mostly Cloudy
9:20 AM 60.8 °F 55.4 °F 82% 30.12 in 6.2 mi WNW 16.1 mph - N/A   Mostly Cloudy
9:50 AM 60.8 °F 55.4 °F 82% 30.12 in 6.2 mi WNW 15.0 mph - N/A   Mostly Cloudy
10:20 AM 60.8 °F 55.4 °F 82% 30.12 in 6.2 mi West 18.4 mph - N/A   Mostly Cloudy
10:50 AM 60.8 °F 57.2 °F 88% 30.12 in 6.2 mi WNW 17.3 mph - N/A   Mostly Cloudy
11:20 AM 62.6 °F 55.4 °F 77% 30.12 in 6.2 mi West 18.4 mph - N/A   Mostly Cloudy
11:50 AM 60.8 °F 57.2 °F 88% 30.09 in 6.2 mi WNW 16.1 mph - N/A Rain Light Drizzle
12:20 PM 64.4 °F 57.2 °F 77% 30.09 in 6.2 mi WNW 16.1 mph - N/A   Mostly Cloudy
12:50 PM 62.6 °F 53.6 °F 72% 30.09 in 6.2 mi WNW 18.4 mph - N/A   Mostly Cloudy
1:20 PM 62.6 °F 55.4 °F 77% 30.09 in 6.2 mi WNW 15.0 mph - N/A   Mostly Cloudy
1:50 PM 60.8 °F 57.2 °F 88% 30.09 in 6.2 mi West 17.3 mph - N/A Rain Light Drizzle
2:01 PM 62.6 °F 57.2 °F 82% 30.09 in 6.2 mi West 15.0 mph - N/A   Light Drizzle
2:20 PM 62.6 °F 57.2 °F 82% 30.09 in 6.2 mi West 17.3 mph - N/A   Mostly Cloudy
2:50 PM 60.8 °F 57.2 °F 88% 30.09 in 6.2 mi West 17.3 mph - N/A Rain Light Drizzle
3:20 PM 60.8 °F 57.2 °F 88% 30.09 in 6.2 mi West 16.1 mph - N/A   Mostly Cloudy
3:49 PM 62.6 °F 57.2 °F 82% 30.09 in 6.2 mi West 18.4 mph - N/A   Mostly Cloudy
3:50 PM 62.6 °F 57.2 °F 82% 30.09 in 6.2 mi West 18.4 mph - N/A   Mostly Cloudy
4:20 PM 62.6 °F 55.4 °F 77% 30.06 in 6.2 mi West 16.1 mph - N/A   Mostly Cloudy
4:50 PM 60.8 °F 55.4 °F 82% 30.06 in 6.2 mi WNW 17.3 mph - N/A   Mostly Cloudy
5:20 PM 60.8 °F 55.4 °F 82% 30.06 in 6.2 mi WNW 15.0 mph - N/A   Mostly Cloudy
5:50 PM 59.0 °F 53.6 °F 82% 30.06 in 6.2 mi WNW 16.1 mph 27.6 mph N/A   Mostly Cloudy
6:20 PM 59.0 °F 55.4 °F 88% 30.06 in 6.2 mi WNW 12.7 mph - N/A   Mostly Cloudy
6:50 PM 59.0 °F 55.4 °F 88% 30.06 in 6.2 mi West 15.0 mph - N/A   Mostly Cloudy
7:20 PM 59.0 °F 55.4 °F 88% 30.06 in 6.2 mi WNW 15.0 mph - N/A   Mostly Cloudy
7:30 PM 59.0 °F 55.4 °F 88% 30.06 in 6.2 mi WNW 12.7 mph - N/A   Mostly Cloudy
7:36 PM 59.0 °F 55.4 °F 88% 30.06 in 6.2 mi WNW 10.4 mph - N/A   Mostly Cloudy
7:50 PM 59.0 °F 55.4 °F 88% 30.06 in 6.2 mi WNW 11.5 mph - N/A   Mostly Cloudy
8:20 PM 59.0 °F 53.6 °F 82% 30.06 in 6.2 mi WNW 9.2 mph - N/A   Mostly Cloudy
8:50 PM 59.0 °F 53.6 °F 82% 30.06 in 6.2 mi WNW 9.2 mph - N/A   Mostly Cloudy
9:20 PM 57.2 °F 53.6 °F 88% 30.06 in 6.2 mi WNW 11.5 mph - N/A   Mostly Cloudy
9:50 PM 57.2 °F 53.6 °F 88% 30.06 in 6.2 mi NW 10.4 mph - N/A   Mostly Cloudy
10:20 PM 57.2 °F 53.6 °F 88% 30.06 in 6.2 mi WNW 10.4 mph - N/A   Mostly Cloudy
10:50 PM 57.2 °F 53.6 °F 88% 30.06 in 6.2 mi NW 10.4 mph - N/A   Mostly Cloudy
11:20 PM 55.4 °F 53.6 °F 94% 30.06 in 6.2 mi NW 9.2 mph - N/A   Mostly Cloudy
11:50 PM 55.4 °F 53.6 °F 94% 30.06 in 6.2 mi NW 8.1 mph - N/A   Mostly Cloudy